Time,TemperatureF,DewpointF,PressureIn,WindDirection,WindDirectionDegrees,WindSpeedMPH,WindSpeedGustMPH,Humidity,HourlyPrecipIn,Conditions,Clouds,dailyrainin,SoftwareType,DateUTC
2013-03-06 00:02:00,26.0,22.0,29.83,NNE,27,2.0,8.0,86,0.00,,,0.02,,2013-03-06 05:02:00,
2013-03-06 00:12:00,26.0,22.0,29.83,NNE,27,2.0,8.0,86,0.00,,,0.02,,2013-03-06 05:12:00,
2013-03-06 00:22:00,26.0,23.0,29.83,NE,40,1.0,9.0,87,0.00,,,0.02,,2013-03-06 05:22:00,
2013-03-06 00:32:00,26.0,23.0,29.83,ENE,77,1.0,5.0,87,0.00,,,0.02,,2013-03-06 05:32:00,
2013-03-06 00:42:00,26.0,23.0,29.83,ENE,77,1.0,5.0,87,0.00,,,0.02,,2013-03-06 05:42:00,
2013-03-06 00:52:00,25.0,22.0,29.83,NNE,17,2.0,5.0,88,0.00,,,0.02,,2013-03-06 05:52:00,
2013-03-06 01:02:00,25.0,22.0,29.84,NNE,30,1.0,5.0,88,0.00,,,0.02,,2013-03-06 06:02:00,
2013-03-06 01:11:00,25.0,22.0,29.84,NNE,30,1.0,5.0,88,0.00,,,0.02,,2013-03-06 06:11:00,
2013-03-06 01:22:00,25.0,22.0,29.84,North,6,2.0,7.0,88,0.00,,,0.02,,2013-03-06 06:22:00,
2013-03-06 01:32:00,25.0,22.0,29.84,East,84,3.0,5.0,88,0.00,,,0.02,,2013-03-06 06:32:00,
2013-03-06 01:42:00,25.0,22.0,29.84,East,84,3.0,5.0,88,0.00,,,0.02,,2013-03-06 06:42:00,
2013-03-06 01:52:00,25.0,22.0,29.84,North,4,1.0,7.0,88,0.00,,,0.02,,2013-03-06 06:52:00,
2013-03-06 02:01:00,25.0,22.0,29.84,NNE,28,2.0,6.0,89,0.00,,,0.02,,2013-03-06 07:01:00,
2013-03-06 02:11:00,25.0,22.0,29.84,NNE,28,2.0,6.0,89,0.00,,,0.02,,2013-03-06 07:11:00,
2013-03-06 02:22:00,25.0,22.0,29.85,North,355,2.0,6.0,89,0.00,,,0.02,,2013-03-06 07:22:00,
2013-03-06 02:32:00,25.0,22.0,29.85,NE,54,2.0,7.0,89,0.00,,,0.02,,2013-03-06 07:32:00,
2013-03-06 02:42:00,25.0,22.0,29.85,NE,54,2.0,7.0,89,0.00,,,0.02,,2013-03-06 07:42:00,
2013-03-06 02:52:00,25.0,22.0,29.86,North,9,2.0,4.0,89,0.00,,,0.02,,2013-03-06 07:52:00,
2013-03-06 03:01:00,26.0,23.0,29.86,East,96,2.0,5.0,89,0.00,,,0.02,,2013-03-06 08:01:00,
2013-03-06 03:11:00,26.0,23.0,29.86,East,96,2.0,5.0,89,0.00,,,0.02,,2013-03-06 08:11:00,
2013-03-06 03:21:00,26.0,23.0,29.86,NNW,348,2.0,7.0,89,0.00,,,0.02,,2013-03-06 08:21:00,
2013-03-06 03:32:00,26.0,23.0,29.86,NNE,28,1.0,4.0,89,0.00,,,0.02,,2013-03-06 08:32:00,
2013-03-06 03:42:00,26.0,23.0,29.86,NNE,28,1.0,4.0,89,0.00,,,0.02,,2013-03-06 08:42:00,
2013-03-06 03:52:00,26.0,23.0,29.86,East,84,1.0,5.0,89,0.00,,,0.02,,2013-03-06 08:52:00,
2013-03-06 04:02:00,27.0,24.0,29.87,NNE,27,1.0,5.0,89,0.00,,,0.02,,2013-03-06 09:02:00,
2013-03-06 04:12:00,27.0,24.0,29.87,NNE,27,1.0,5.0,89,0.00,,,0.02,,2013-03-06 09:12:00,
2013-03-06 04:22:00,27.0,24.0,29.87,NNE,22,2.0,4.0,89,0.00,,,0.02,,2013-03-06 09:22:00,
2013-03-06 04:32:00,27.0,24.0,29.87,ENE,63,1.0,3.0,88,0.00,,,0.02,,2013-03-06 09:32:00,
2013-03-06 04:42:00,27.0,24.0,29.87,ENE,63,1.0,3.0,88,0.00,,,0.02,,2013-03-06 09:42:00,
2013-03-06 04:52:00,27.0,24.0,29.88,NE,44,1.0,4.0,88,0.00,,,0.02,,2013-03-06 09:52:00,
2013-03-06 05:02:00,27.0,24.0,29.89,NNE,32,1.0,5.0,88,0.00,,,0.02,,2013-03-06 10:02:00,
2013-03-06 05:11:00,27.0,24.0,29.89,NNE,32,1.0,5.0,88,0.00,,,0.02,,2013-03-06 10:11:00,
2013-03-06 05:22:00,27.0,24.0,29.90,ENE,63,1.0,4.0,88,0.00,,,0.02,,2013-03-06 10:22:00,
2013-03-06 05:32:00,27.0,24.0,29.91,East,92,1.0,6.0,88,0.00,,,0.02,,2013-03-06 10:32:00,
2013-03-06 05:42:00,27.0,24.0,29.91,East,92,1.0,6.0,88,0.00,,,0.02,,2013-03-06 10:42:00,
2013-03-06 05:52:00,27.0,24.0,29.91,North,352,0.0,3.0,88,0.00,,,0.02,,2013-03-06 10:52:00,
2013-03-06 06:02:00,27.0,24.0,29.91,North,352,0.0,3.0,88,0.00,,,0.02,,2013-03-06 11:02:00,
2013-03-06 06:11:00,27.0,24.0,29.91,North,352,0.0,3.0,88,0.00,,,0.02,,2013-03-06 11:11:00,
2013-03-06 06:22:00,28.0,25.0,29.93,ENE,75,1.0,5.0,88,0.00,,,0.02,,2013-03-06 11:22:00,
2013-03-06 06:32:00,28.0,25.0,29.94,NNE,17,1.0,3.0,88,0.00,,,0.02,,2013-03-06 11:32:00,
2013-03-06 06:42:00,28.0,25.0,29.94,NNE,17,1.0,3.0,88,0.00,,,0.02,,2013-03-06 11:42:00,
2013-03-06 06:52:00,28.0,25.0,29.94,NNE,23,1.0,2.0,88,0.00,,,0.02,,2013-03-06 11:52:00,
2013-03-06 07:02:00,28.0,25.0,29.96,NNE,13,1.0,4.0,88,0.00,,,0.02,,2013-03-06 12:02:00,
2013-03-06 07:12:00,28.0,25.0,29.96,NNE,13,1.0,4.0,88,0.00,,,0.02,,2013-03-06 12:12:00,
2013-03-06 07:22:00,28.0,25.0,29.96,NNW,342,1.0,4.0,88,0.00,,,0.02,,2013-03-06 12:22:00,
2013-03-06 07:33:00,28.0,25.0,29.98,North,357,0.0,6.0,88,0.00,,,0.02,,2013-03-06 12:33:00,
2013-03-06 07:42:00,28.0,25.0,29.98,North,357,0.0,6.0,88,0.00,,,0.02,,2013-03-06 12:42:00,
2013-03-06 07:52:00,28.0,25.0,29.99,NNE,30,1.0,4.0,88,0.00,,,0.02,,2013-03-06 12:52:00,
2013-03-06 08:02:00,28.0,25.0,30.00,NNE,23,0.0,2.0,88,0.00,,,0.02,,2013-03-06 13:02:00,
2013-03-06 08:12:00,28.0,25.0,30.00,NNE,23,0.0,2.0,88,0.00,,,0.02,,2013-03-06 13:12:00,
2013-03-06 08:22:00,28.0,25.0,30.01,North,359,0.0,3.0,89,0.00,,,0.02,,2013-03-06 13:22:00,
2013-03-06 08:32:00,28.0,25.0,30.02,NNE,32,0.0,3.0,88,0.00,,,0.02,,2013-03-06 13:32:00,
2013-03-06 08:42:00,28.0,25.0,30.02,NNE,32,0.0,3.0,88,0.00,,,0.02,,2013-03-06 13:42:00,
2013-03-06 08:52:00,29.0,26.0,30.03,NE,40,3.0,6.0,87,0.00,,,0.02,,2013-03-06 13:52:00,
2013-03-06 09:02:00,30.0,27.0,30.04,North,352,1.0,6.0,87,0.00,,,0.02,,2013-03-06 14:02:00,
2013-03-06 09:11:00,30.0,27.0,30.04,North,352,1.0,6.0,87,0.00,,,0.02,,2013-03-06 14:11:00,
2013-03-06 09:22:00,30.0,26.0,30.04,East,89,1.0,3.0,86,0.00,,,0.02,,2013-03-06 14:22:00,
2013-03-06 09:32:00,30.0,26.0,30.05,NE,41,1.0,6.0,85,0.00,,,0.02,,2013-03-06 14:32:00,
2013-03-06 09:42:00,30.0,26.0,30.05,NE,41,1.0,6.0,85,0.00,,,0.02,,2013-03-06 14:42:00,
2013-03-06 09:52:00,31.0,27.0,30.06,NW,319,2.0,4.0,84,0.00,,,0.02,,2013-03-06 14:52:00,
2013-03-06 10:02:00,31.0,27.0,30.06,NNW,336,0.0,5.0,84,0.00,,,0.02,,2013-03-06 15:02:00,
2013-03-06 10:12:00,31.0,27.0,30.06,NNW,336,0.0,5.0,84,0.00,,,0.02,,2013-03-06 15:12:00,
2013-03-06 10:22:00,32.0,27.0,30.07,NW,322,1.0,5.0,83,0.00,,,0.02,,2013-03-06 15:22:00,
2013-03-06 10:32:00,32.0,27.0,30.07,NNE,20,1.0,4.0,82,0.00,,,0.02,,2013-03-06 15:32:00,
2013-03-06 10:42:00,32.0,27.0,30.07,NNE,20,1.0,4.0,82,0.00,,,0.02,,2013-03-06 15:42:00,
2013-03-06 10:52:00,33.0,28.0,30.07,NNW,329,1.0,5.0,81,0.00,,,0.02,,2013-03-06 15:52:00,
2013-03-06 11:02:00,33.0,28.0,30.08,East,89,0.0,4.0,80,0.00,,,0.02,,2013-03-06 16:02:00,
2013-03-06 11:12:00,33.0,28.0,30.08,East,89,0.0,4.0,80,0.00,,,0.02,,2013-03-06 16:12:00,
2013-03-06 11:21:00,33.0,27.0,30.08,East,85,2.0,5.0,78,0.00,,,0.02,,2013-03-06 16:21:00,
2013-03-06 11:32:00,35.0,29.0,30.08,NNW,333,1.0,6.0,79,0.00,,,0.02,,2013-03-06 16:32:00,
2013-03-06 11:42:00,35.0,29.0,30.08,NNW,333,1.0,6.0,79,0.00,,,0.02,,2013-03-06 16:42:00,
2013-03-06 11:52:00,35.0,28.0,30.08,ENE,69,1.0,8.0,75,0.00,,,0.02,,2013-03-06 16:52:00,
2013-03-06 12:01:00,35.0,28.0,30.08,North,1,1.0,4.0,76,0.00,,,0.02,,2013-03-06 17:01:00,
2013-03-06 12:11:00,35.0,28.0,30.08,North,1,1.0,4.0,76,0.00,,,0.02,,2013-03-06 17:11:00,
2013-03-06 12:22:00,36.0,29.0,30.08,West,266,1.0,5.0,74,0.00,,,0.02,,2013-03-06 17:22:00,
2013-03-06 12:32:00,37.0,29.0,30.09,NE,46,0.0,5.0,74,0.00,,,0.02,,2013-03-06 17:32:00,
2013-03-06 12:42:00,37.0,29.0,30.09,NE,46,0.0,5.0,74,0.00,,,0.02,,2013-03-06 17:42:00,
2013-03-06 12:52:00,36.0,29.0,30.11,West,277,2.0,4.0,74,0.00,,,0.02,,2013-03-06 17:52:00,
2013-03-06 13:02:00,37.0,29.0,30.11,NW,309,1.0,4.0,73,0.00,,,0.02,,2013-03-06 18:02:00,
2013-03-06 13:29:00,36.0,29.0,30.12,NW,314,2.0,5.0,74,0.00,,,0.02,,2013-03-06 18:29:00,
2013-03-06 13:42:00,36.0,29.0,30.12,WNW,285,1.0,6.0,75,0.00,,,0.02,,2013-03-06 18:42:00,
2013-03-06 13:52:00,35.0,28.0,30.11,West,277,1.0,5.0,76,0.00,,,0.02,,2013-03-06 18:52:00,
2013-03-06 14:02:00,36.0,29.0,30.11,WNW,288,2.0,5.0,75,0.00,,,0.02,,2013-03-06 19:02:00,
2013-03-06 14:11:00,36.0,29.0,30.11,WNW,288,2.0,5.0,75,0.00,,,0.02,,2013-03-06 19:11:00,
2013-03-06 14:22:00,35.0,29.0,30.11,West,269,2.0,7.0,77,0.00,,,0.02,,2013-03-06 19:22:00,
2013-03-06 14:32:00,35.0,29.0,30.11,WNW,291,3.0,7.0,78,0.00,,,0.01,,2013-03-06 19:32:00,
2013-03-06 14:43:00,35.0,29.0,30.11,WNW,291,3.0,7.0,78,0.00,,,0.01,,2013-03-06 19:43:00,
2013-03-06 14:52:00,35.0,29.0,30.11,NW,307,2.0,6.0,78,0.00,,,0.01,,2013-03-06 19:52:00,
2013-03-06 15:02:00,35.0,29.0,30.11,WNW,298,2.0,7.0,78,0.00,,,0.01,,2013-03-06 20:02:00,
2013-03-06 15:12:00,35.0,29.0,30.11,WNW,298,2.0,7.0,78,0.00,,,0.01,,2013-03-06 20:12:00,
2013-03-06 15:22:00,35.0,29.0,30.11,NW,307,2.0,7.0,78,0.00,,,0.01,,2013-03-06 20:22:00,
2013-03-06 15:33:00,35.0,29.0,30.11,WNW,288,3.0,7.0,78,0.00,,,0.01,,2013-03-06 20:33:00,
2013-03-06 15:42:00,35.0,29.0,30.11,WNW,288,3.0,7.0,78,0.00,,,0.01,,2013-03-06 20:42:00,
2013-03-06 15:52:00,35.0,29.0,30.11,NW,310,2.0,5.0,77,0.00,,,0.01,,2013-03-06 20:52:00,
2013-03-06 16:02:00,35.0,29.0,30.11,WNW,286,0.0,5.0,78,0.00,,,0.01,,2013-03-06 21:02:00,
2013-03-06 16:12:00,35.0,29.0,30.11,WNW,286,0.0,5.0,78,0.00,,,0.01,,2013-03-06 21:12:00,
2013-03-06 16:22:00,36.0,29.0,30.12,NW,309,1.0,4.0,77,0.00,,,0.01,,2013-03-06 21:22:00,
2013-03-06 16:32:00,36.0,29.0,30.12,NW,309,1.0,4.0,77,0.00,,,0.01,,2013-03-06 21:32:00,
2013-03-06 16:42:00,36.0,29.0,30.12,NW,309,1.0,4.0,77,0.00,,,0.01,,2013-03-06 21:42:00,
2013-03-06 16:52:00,35.0,29.0,30.12,WNW,288,3.0,7.0,78,0.00,,,0.00,,2013-03-06 21:52:00,
2013-03-06 17:02:00,35.0,29.0,30.13,NW,317,2.0,6.0,78,0.00,,,0.00,,2013-03-06 22:02:00,
2013-03-06 17:11:00,35.0,29.0,30.13,NW,317,2.0,6.0,78,0.00,,,0.00,,2013-03-06 22:11:00,
2013-03-06 17:22:00,34.0,28.0,30.14,WNW,295,2.0,7.0,79,0.00,,,0.00,,2013-03-06 22:22:00,
2013-03-06 17:32:00,34.0,28.0,30.14,North,355,1.0,7.0,79,0.00,,,0.00,,2013-03-06 22:32:00,
2013-03-06 17:42:00,34.0,28.0,30.14,North,355,1.0,7.0,79,0.00,,,0.00,,2013-03-06 22:42:00,
2013-03-06 17:52:00,34.0,28.0,30.15,WNW,295,1.0,4.0,79,0.00,,,0.00,,2013-03-06 22:52:00,
2013-03-06 18:02:00,34.0,28.0,30.15,WNW,290,1.0,4.0,80,0.00,,,0.00,,2013-03-06 23:02:00,
2013-03-06 18:11:00,34.0,28.0,30.15,WNW,290,1.0,4.0,80,0.00,,,0.00,,2013-03-06 23:11:00,
2013-03-06 18:22:00,34.0,29.0,30.15,WNW,292,0.0,3.0,81,0.00,,,0.00,,2013-03-06 23:22:00,
2013-03-06 18:32:00,34.0,29.0,30.15,WNW,292,0.0,2.0,81,0.00,,,0.00,,2013-03-06 23:32:00,
2013-03-06 18:42:00,34.0,29.0,30.15,WNW,292,0.0,2.0,81,0.00,,,0.00,,2013-03-06 23:42:00,
2013-03-06 18:52:00,33.0,28.0,30.16,WNW,290,1.0,4.0,81,0.00,,,0.00,,2013-03-06 23:52:00,
2013-03-06 19:02:00,33.0,28.0,30.16,West,278,2.0,4.0,82,0.00,,,0.00,,2013-03-07 00:02:00,
2013-03-06 19:11:00,33.0,28.0,30.16,West,278,2.0,4.0,82,0.00,,,0.00,,2013-03-07 00:11:00,
2013-03-06 19:22:00,33.0,28.0,30.16,WNW,283,1.0,4.0,82,0.00,,,0.00,,2013-03-07 00:22:00,
2013-03-06 19:32:00,33.0,28.0,30.17,WNW,290,0.0,2.0,83,0.00,,,0.00,,2013-03-07 00:32:00,
2013-03-06 19:42:00,33.0,28.0,30.17,WNW,290,0.0,2.0,83,0.00,,,0.00,,2013-03-07 00:42:00,
2013-03-06 19:52:00,33.0,28.0,30.17,NW,308,0.0,0.0,83,0.00,,,0.00,,2013-03-07 00:52:00,
2013-03-06 20:02:00,33.0,28.0,30.17,WNW,295,0.0,0.0,83,0.00,,,0.00,,2013-03-07 01:02:00,
2013-03-06 20:11:00,33.0,28.0,30.17,WNW,295,0.0,0.0,83,0.00,,,0.00,,2013-03-07 01:11:00,
2013-03-06 20:22:00,32.0,28.0,30.17,WNW,290,0.0,0.0,84,0.00,,,0.00,,2013-03-07 01:22:00,
2013-03-06 20:32:00,32.0,28.0,30.18,WNW,285,0.0,0.0,84,0.00,,,0.00,,2013-03-07 01:32:00,
2013-03-06 20:42:00,32.0,28.0,30.18,WNW,285,0.0,0.0,84,0.00,,,0.00,,2013-03-07 01:42:00,
2013-03-06 20:52:00,32.0,28.0,30.18,WNW,285,0.0,0.0,85,0.00,,,0.00,,2013-03-07 01:52:00,
2013-03-06 21:01:00,32.0,28.0,30.18,WNW,285,0.0,0.0,85,0.00,,,0.00,,2013-03-07 02:01:00,
2013-03-06 21:11:00,32.0,28.0,30.18,WNW,285,0.0,0.0,85,0.00,,,0.00,,2013-03-07 02:11:00,
2013-03-06 21:21:00,32.0,28.0,30.18,WNW,285,0.0,0.0,85,0.00,,,0.00,,2013-03-07 02:21:00,
2013-03-06 21:32:00,32.0,28.0,30.18,WNW,285,0.0,0.0,86,0.00,,,0.00,,2013-03-07 02:32:00,
2013-03-06 21:42:00,32.0,28.0,30.18,WNW,285,0.0,0.0,86,0.00,,,0.00,,2013-03-07 02:42:00,
2013-03-06 21:51:00,32.0,28.0,30.18,WNW,285,0.0,0.0,86,0.00,,,0.00,,2013-03-07 02:51:00,
2013-03-06 22:02:00,32.0,28.0,30.19,WNW,285,0.0,0.0,86,0.00,,,0.00,,2013-03-07 03:02:00,
2013-03-06 22:11:00,32.0,28.0,30.19,WNW,285,0.0,0.0,86,0.00,,,0.00,,2013-03-07 03:11:00,
2013-03-06 22:22:00,32.0,28.0,30.19,WNW,285,0.0,0.0,86,0.00,,,0.00,,2013-03-07 03:22:00,
2013-03-06 22:32:00,32.0,29.0,30.19,WNW,285,0.0,0.0,87,0.00,,,0.00,,2013-03-07 03:32:00,
2013-03-06 22:42:00,32.0,29.0,30.19,WNW,285,0.0,0.0,87,0.00,,,0.00,,2013-03-07 03:42:00,
2013-03-06 22:52:00,32.0,29.0,30.19,West,259,0.0,0.0,88,0.00,,,0.00,,2013-03-07 03:52:00,
2013-03-06 23:02:00,32.0,29.0,30.19,West,259,0.0,0.0,88,0.00,,,0.00,,2013-03-07 04:02:00,
2013-03-06 23:12:00,32.0,29.0,30.19,West,259,0.0,0.0,88,0.00,,,0.00,,2013-03-07 04:12:00,
2013-03-06 23:22:00,32.0,29.0,30.19,West,264,0.0,0.0,87,0.00,,,0.00,,2013-03-07 04:22:00,
2013-03-06 23:32:00,32.0,29.0,30.19,West,264,0.0,0.0,87,0.00,,,0.00,,2013-03-07 04:32:00,
2013-03-06 23:42:00,32.0,29.0,30.19,West,264,0.0,0.0,87,0.00,,,0.00,,2013-03-07 04:42:00,
2013-03-06 23:52:00,32.0,29.0,30.19,West,264,0.0,0.0,87,0.00,,,0.00,,2013-03-07 04:52:00,